Tracking 25709 objects as of 23-May-2022
HD Live streaming from Space Station
objects crossing your sky now

GLOBAL-15

Track GLOBAL-15 now!
10-day predictions


NORAD ID: 49470
Int'l Code: 2021-106B
Perigee: 463.2 km
Apogee: 478.2 km
Inclination: 42.0 °
Period: 93.9 minutes
Semi major axis: 6841 km
RCS: Unknown
Launch date: November 18, 2021
Source: United States (US)
Launch site: Rocket Lab Launch Complex (RLLC)
aabbcc
Your satellite tracking list
Your tracking list is empty




NASA's NSSDC Master Catalog

Two Line Element Set (TLE):
1 49470U 21106B   22142.95416738  .00016396  00000-0  49171-3 0  9998
2 49470  42.0109   3.1758 0010952 183.9725 176.1028 15.34108691 28731
Source of the keplerian elements: AFSPC